Change the Weather History Date:

Monday, December 3, 2012

  Actual Average Record
Temperature  
Mean Temperature 62 °F 51 °F  
Max Temperature 79 °F 63 °F 82 °F (1983)
Min Temperature 44 °F 40 °F 20 °F (1960)
Degree Days  
Heating Degree Days 3 14  
Month to date heating degree days 12 42  
Since 1 July heating degree days 403 413  
Growing Degree Days 12 (Base 50)    
Moisture  
Dew Point 48 °F    
Average Humidity 65    
Maximum Humidity 93    
Minimum Humidity 37    
Precipitation  
Precipitation 0.00 in 0.16 in 2.97 in (1953)
Month to date precipitation 0.00 0.50  
Year to date precipitation 36.42 48.71  
Snow  
Snow 0.00 in 0.00 in - ()
Month to date snowfall 0.0 0.0  
Since 1 July snowfall 0.0 0.0  
Snow Depth 0.00 in    
Sea Level Pressure  
Sea Level Pressure 30.25 in    
Wind  
Wind Speed 4 mph (SSE)    
Max Wind Speed 13 mph    
Max Gust Speed 17 mph    
Visibility 8 miles    
Events Fog    
T = Trace of Precipitation, MM = Missing Value Source: NWS Daily Summary

Daily Weather History Graph

Daily Weather History Graph

Search for Another Location

Airport or City:

Trip Planner

Search our weather history database for the weather conditions in past years. The results will help you decide how hot, cold, wet, or windy it might be!

Date:

Astronomy

Dec. 03, 2012 Rise Set
Actual Time 6:31 AM CST 4:40 PM CST
Civil Twilight 6:04 AM CST 5:07 PM CST
Nautical Twilight 5:33 AM CST 5:37 PM CST
Astronomical Twilight 5:04 AM CST 6:07 PM CST
Moon 9:17 PM CST (12/3) 10:01 AM CST (12/3)
Length of Visible Light 11h 02m
Length of Day
10h 09m
Waning Gibbous, 78% of the Moon is Illuminated
Dec 3
Waning Gibbous
Dec 6
Last Quarter
Dec 13
New
Dec 19
First Quarter
Dec 28
Full

Hourly Weather History & Observations

Time (CST) Temp. Windchill Dew Point Humidity Pressure Visibility Wind Dir Wind Speed Gust Speed Precip Events Conditions
12:53 AM 48.9 °F - 46.0 °F 90% 30.27 in 10.0 mi Calm Calm - N/A   Clear
1:53 AM 46.9 °F - 44.1 °F 90% 30.27 in 10.0 mi Calm Calm - N/A   Clear
2:50 AM 46.4 °F - 44.6 °F 93% 30.27 in 1.0 mi Calm Calm - N/A   Clear
2:53 AM 46.9 °F - 44.1 °F 90% 30.27 in 0.8 mi Calm Calm - N/A   Clear
3:04 AM 46.4 °F 45.2 °F 44.6 °F 93% 30.27 in 0.2 mi East 3.5 mph - N/A Fog Fog
3:15 AM 46.4 °F - 44.6 °F 93% 30.27 in 1.0 mi Calm Calm - N/A   Mist
3:17 AM 46.4 °F - 44.6 °F 93% 30.27 in 3.0 mi Calm Calm - N/A   Partly Cloudy
3:53 AM 46.9 °F - 45.0 °F 93% 30.27 in 8.0 mi Calm Calm - N/A   Clear
4:53 AM 46.9 °F - 44.1 °F 90% 30.27 in 8.0 mi Calm Calm - N/A   Clear
5:53 AM 45.0 °F - 43.0 °F 93% 30.28 in 5.0 mi Calm Calm - N/A   Clear
5:55 AM 44.6 °F - 42.8 °F 93% 30.28 in 1.8 mi Calm Calm - N/A   Clear
5:58 AM 46.4 °F - 44.6 °F 93% 30.28 in 0.8 mi Calm Calm - N/A   Clear
6:07 AM 44.6 °F - 42.8 °F 93% 30.28 in 2.0 mi Calm Calm - N/A   Clear
6:14 AM 44.6 °F - 42.8 °F 93% 30.28 in 9.0 mi Calm Calm - N/A   Clear
6:53 AM 46.0 °F - 44.1 °F 93% 30.30 in 9.0 mi Calm Calm - N/A   Scattered Clouds
7:53 AM 53.1 °F - 48.9 °F 86% 30.30 in 9.0 mi East 3.5 mph - N/A   Clear
8:53 AM 60.1 °F - 53.1 °F 78% 30.31 in 10.0 mi East 5.8 mph - N/A   Clear
9:53 AM 66.9 °F - 54.0 °F 63% 30.30 in 10.0 mi Calm Calm - N/A   Overcast
10:53 AM 73.0 °F - 54.0 °F 51% 30.28 in 10.0 mi SSE 6.9 mph - N/A   Partly Cloudy
11:53 AM 75.0 °F - 55.0 °F 50% 30.25 in 10.0 mi South 11.5 mph - N/A   Mostly Cloudy
12:53 PM 78.8 °F - 51.8 °F 39% 30.23 in 10.0 mi South 12.7 mph 17.3 mph N/A   Mostly Cloudy
1:53 PM 79.0 °F - 53.1 °F 40% 30.20 in 10.0 mi SSW 9.2 mph 16.1 mph N/A   Mostly Cloudy
2:53 PM 78.1 °F - 50.0 °F 37% 30.19 in 10.0 mi South 11.5 mph - N/A   Partly Cloudy
3:53 PM 75.0 °F - 51.1 °F 43% 30.20 in 10.0 mi South 3.5 mph - N/A   Mostly Cloudy
4:53 PM 70.0 °F - 51.1 °F 51% 30.20 in 10.0 mi Calm Calm - N/A   Mostly Cloudy
5:53 PM 66.0 °F - 51.1 °F 59% 30.22 in 10.0 mi SE 3.5 mph - N/A   Overcast
6:53 PM 64.9 °F - 51.1 °F 61% 30.22 in 10.0 mi SSE 4.6 mph - N/A   Overcast
7:53 PM 64.0 °F - 51.1 °F 63% 30.22 in 10.0 mi SSE 4.6 mph - N/A   Scattered Clouds
8:53 PM 61.0 °F - 51.1 °F 70% 30.23 in 10.0 mi SSE 4.6 mph - N/A   Clear
9:53 PM 60.1 °F - 51.1 °F 72% 30.23 in 10.0 mi SSE 4.6 mph - N/A   Clear
10:53 PM 60.1 °F - 51.1 °F 72% 30.23 in 10.0 mi Calm Calm - N/A   Clear
11:53 PM 53.6 °F - 48.2 °F 82% 30.23 in 10.0 mi Calm Calm - N/A   Clear